Hourly Weather Rusiny

Today, 11 April, Sunday

Time Temperature Precipitation Wind Pressure Humidity
00:00 +5°C° 0 mm 2 mps 716 mmHg 79%
01:00 +5°C° 0 mm 2 mps 716 mmHg 79%
02:00 +4°C° 0 mm 2 mps 716 mmHg 81%
03:00 +4°C° 0 mm 2 mps 715 mmHg 82%
04:00 +4°C° 0 mm 2 mps 715 mmHg 84%
05:00 +5°C° 0 mm 2 mps 715 mmHg 80%
06:00 +6°C° 0 mm 2 mps 715 mmHg 76%
07:00 +7°C° 0 mm 2 mps 715 mmHg 72%
08:00 +10°C° 0 mm 2 mps 715 mmHg 64%
09:00 +12°C° 0 mm 3 mps 715 mmHg 55%
10:00 +14°C° 0 mm 3 mps 716 mmHg 47%
11:00 +14°C° 0 mm 3 mps 715 mmHg 46%
12:00 +16°C° 0 mm 3 mps 715 mmHg 45%
13:00 +15°C° 0 mm 4 mps 715 mmHg 44%
14:00 +14°C° 0 mm 4 mps 715 mmHg 50%
15:00 +13°C° 0 mm 3 mps 715 mmHg 56%
16:00 +12°C° 0 mm 3 mps 715 mmHg 62%
17:00 +11°C° 0.1 mm 3 mps 715 mmHg 67%
18:00 +10°C° 0.1 mm 3 mps 715 mmHg 72%
19:00 +9°C° 0.1 mm 2 mps 715 mmHg 77%
20:00 +9°C° 0 mm 2 mps 715 mmHg 79%
21:00 +9°C° 0 mm 2 mps 715 mmHg 81%
22:00 +8°C° 0 mm 2 mps 715 mmHg 82%
23:00 +8°C° 0 mm 2 mps 715 mmHg 83%

Tomorrow, 12 April, Monday

Time Temperature Precipitation Wind Pressure Humidity
00:00 +8°C° 0 mm 2 mps 715 mmHg 84%
01:00 +8°C° 0 mm 2 mps 715 mmHg 85%
02:00 +8°C° 0 mm 2 mps 714 mmHg 86%
03:00 +7°C° 0 mm 2 mps 714 mmHg 87%
04:00 +8°C° 0 mm 1 mps 714 mmHg 88%
05:00 +8°C° 0 mm 1 mps 714 mmHg 86%
06:00 +8°C° 0 mm 2 mps 714 mmHg 84%
07:00 +8°C° 0 mm 2 mps 714 mmHg 82%
08:00 +10°C° 0 mm 1 mps 714 mmHg 79%
09:00 +11°C° 0 mm 1 mps 714 mmHg 76%
10:00 +11°C° 0 mm 1 mps 715 mmHg 73%
11:00 +11°C° 0 mm 1 mps 715 mmHg 72%
12:00 +12°C° 0 mm 1 mps 715 mmHg 70%
13:00 +12°C° 0 mm 1 mps 715 mmHg 69%
14:00 +12°C° 0 mm 1 mps 715 mmHg 71%
15:00 +12°C° 0 mm 1 mps 715 mmHg 72%
16:00 +12°C° 0 mm 1 mps 715 mmHg 74%
17:00 +11°C° 0 mm 1 mps 715 mmHg 79%
18:00 +10°C° 0 mm 1 mps 716 mmHg 84%
19:00 +9°C° 0 mm 1 mps 716 mmHg 89%
20:00 +8°C° 0.2 mm 1 mps 716 mmHg 91%
21:00 +7°C° 0.2 mm 2 mps 716 mmHg 92%
22:00 +6°C° 0.2 mm 2 mps 716 mmHg 94%
23:00 +6°C° 1.5 mm 2 mps 716 mmHg 95%

Day after tomorrow, 13 April, Tuesday

Time Temperature Precipitation Wind Pressure Humidity
00:00 +5°C° 1.5 mm 2 mps 716 mmHg 96%
01:00 +5°C° 1.5 mm 2 mps 716 mmHg 96%
02:00 +4°C° 0.8 mm 2 mps 716 mmHg 97%
03:00 +4°C° 0.8 mm 2 mps 716 mmHg 97%
04:00 +3°C° 0.8 mm 2 mps 716 mmHg 97%
05:00 +3°C° 0.5 mm 2 mps 717 mmHg 97%
06:00 +2°C° 0.5 mm 2 mps 717 mmHg 98%
07:00 +1°C° 0.5 mm 2 mps 717 mmHg 98%
08:00 +1°C° 1.1 mm 2 mps 718 mmHg 98%
09:00 +1°C° 1.1 mm 2 mps 718 mmHg 98%
10:00 +1°C° 1.1 mm 2 mps 718 mmHg 98%
11:00 +1°C° 1.4 mm 2 mps 718 mmHg 98%
12:00 +1°C° 1.4 mm 2 mps 718 mmHg 98%
13:00 -1°C° 1.4 mm 2 mps 718 mmHg 98%
14:00 -1°C° 1.6 mm 2 mps 718 mmHg 99%
15:00 +1°C° 1.6 mm 1 mps 718 mmHg 99%
16:00 +1°C° 1.6 mm 1 mps 717 mmHg 99%
17:00 +1°C° 1.6 mm 1 mps 717 mmHg 99%
18:00 +1°C° 1.6 mm 1 mps 717 mmHg 99%
19:00 +1°C° 1.6 mm 1 mps 717 mmHg 99%
20:00 -1°C° 1.4 mm 2 mps 717 mmHg 99%
21:00 -1°C° 1.4 mm 2 mps 717 mmHg 99%
22:00 -2°C° 1.4 mm 2 mps 717 mmHg 99%
23:00 -2°C° 0.9 mm 2 mps 717 mmHg 99%

14 April, Wednesday

Time Temperature Precipitation Wind Pressure Humidity
00:00 -2°C° 0.9 mm 2 mps 717 mmHg 99%
01:00 -2°C° 0.9 mm 2 mps 717 mmHg 99%
02:00 -2°C° 0.7 mm 2 mps 717 mmHg 98%
03:00 -2°C° 0.7 mm 2 mps 717 mmHg 98%
04:00 -2°C° 0.7 mm 3 mps 716 mmHg 98%
05:00 -2°C° 0.7 mm 3 mps 716 mmHg 98%
06:00 -2°C° 0.7 mm 3 mps 717 mmHg 97%
07:00 -2°C° 0.7 mm 3 mps 717 mmHg 97%
08:00 -2°C° 0.6 mm 3 mps 716 mmHg 97%
09:00 -2°C° 0.6 mm 4 mps 716 mmHg 97%
10:00 -2°C° 0.6 mm 4 mps 716 mmHg 97%
11:00 -2°C° 0.8 mm 4 mps 716 mmHg 97%
12:00 -2°C° 0.8 mm 4 mps 716 mmHg 98%
13:00 -2°C° 0.8 mm 4 mps 716 mmHg 98%
14:00 -2°C° 1.1 mm 4 mps 716 mmHg 98%
15:00 -2°C° 1.1 mm 4 mps 715 mmHg 98%
16:00 -1°C° 1.1 mm 3 mps 715 mmHg 98%
17:00 -2°C° 1.5 mm 3 mps 715 mmHg 98%
18:00 -2°C° 1.5 mm 3 mps 715 mmHg 98%
19:00 -2°C° 1.5 mm 3 mps 715 mmHg 98%
20:00 -2°C° 1.8 mm 3 mps 715 mmHg 98%
21:00 -2°C° 1.8 mm 3 mps 714 mmHg 99%
22:00 -2°C° 1.8 mm 3 mps 714 mmHg 99%
23:00 -2°C° 1.4 mm 3 mps 714 mmHg 99%

15 April, Thursday

Time Temperature Precipitation Wind Pressure Humidity
00:00 -2°C° 1.4 mm 3 mps 714 mmHg 99%
01:00 -2°C° 1.4 mm 2 mps 714 mmHg 99%
02:00 -2°C° 0.9 mm 2 mps 714 mmHg 99%
03:00 -2°C° 0.9 mm 2 mps 714 mmHg 99%
04:00 -2°C° 0.9 mm 2 mps 714 mmHg 99%
05:00 -2°C° 0.7 mm 2 mps 714 mmHg 98%
06:00 -2°C° 0.7 mm 2 mps 714 mmHg 98%
07:00 -2°C° 0.7 mm 2 mps 714 mmHg 98%
08:00 -2°C° 0.5 mm 2 mps 714 mmHg 99%
09:00 -1°C° 0.5 mm 2 mps 714 mmHg 99%
10:00 -1°C° 0.5 mm 2 mps 715 mmHg 99%
11:00 -1°C° 0.6 mm 2 mps 715 mmHg 99%
12:00 -1°C° 0.6 mm 2 mps 715 mmHg 99%
13:00 -1°C° 0.6 mm 2 mps 715 mmHg 99%
14:00 -1°C° 0.6 mm 2 mps 715 mmHg 99%
15:00 -1°C° 0.6 mm 2 mps 715 mmHg 99%
16:00 -1°C° 0.6 mm 2 mps 716 mmHg 99%
17:00 -1°C° 0.4 mm 2 mps 716 mmHg 99%
18:00 -1°C° 0.4 mm 2 mps 716 mmHg 99%
19:00 -1°C° 0.4 mm 2 mps 716 mmHg 99%
20:00 -2°C° 0.3 mm 2 mps 717 mmHg 99%
21:00 -2°C° 0.3 mm 2 mps 717 mmHg 99%
22:00 -2°C° 0.3 mm 2 mps 717 mmHg 99%
23:00 -2°C° 0.1 mm 2 mps 717 mmHg 99%

16 April, Friday

Time Temperature Precipitation Wind Pressure Humidity
00:00 0°C° 0.1 mm 1 mps 717 mmHg 99%
01:00 0°C° 0.1 mm 1 mps 717 mmHg 99%
02:00 0°C° 0.2 mm 1 mps 717 mmHg 99%
03:00 0°C° 0.2 mm 1 mps 717 mmHg 99%
04:00 0°C° 0.2 mm 1 mps 717 mmHg 99%
05:00 +1°C° 0.1 mm 1 mps 718 mmHg 99%
06:00 +1°C° 0.1 mm 1 mps 718 mmHg 99%
07:00 +1°C° 0.1 mm 1 mps 718 mmHg 99%
08:00 +1°C° 0.2 mm 1 mps 719 mmHg 99%
09:00 +1°C° 0.2 mm 1 mps 719 mmHg 99%
10:00 +1°C° 0.2 mm 1 mps 719 mmHg 99%
11:00 +1°C° 0.1 mm 1 mps 720 mmHg 99%
12:00 +1°C° 0.1 mm 1 mps 720 mmHg 99%
13:00 +1°C° 0.1 mm 1 mps 720 mmHg 99%
14:00 +1°C° 0 mm 1 mps 720 mmHg 99%
15:00 +1°C° 0 mm 1 mps 720 mmHg 99%
16:00 +1°C° 0 mm 1 mps 721 mmHg 99%
17:00 +1°C° 0.1 mm 1 mps 721 mmHg 99%
18:00 +1°C° 0.1 mm 1 mps 721 mmHg 99%
19:00 0°C° 0.1 mm 0 mps 721 mmHg 99%
20:00 0°C° 0.2 mm 0 mps 722 mmHg 99%
21:00 0°C° 0.2 mm 0 mps 722 mmHg 99%
22:00 0°C° 0.2 mm 0 mps 722 mmHg 99%
23:00 0°C° 0 mm 0 mps 722 mmHg 99%
Show more